This is the latest recevied weather packets stored in our database for station/object K3PPP. If no packets are shown the sender has not sent any weather packets the latest 10 day(s).
| Time | Temp. | Humidity | Pressure | Rain* | Wind** | Luminosity | Snow |
|---|---|---|---|---|---|---|---|
| 1777758309 | 5° C | 64% | 1013.2 hPa | 0 mm | - | 131 W/m² | - |
| 1777758007 | 5.56° C | 64% | 1013.3 hPa | 0 mm | - | 77 W/m² | - |
| 1777757703 | 5.56° C | 64% | 1013 hPa | 0 mm | - | 128 W/m² | - |
| 1777757401 | 5.56° C | 64% | 1013.2 hPa | 0 mm | - | 117 W/m² | - |
| 1777757099 | 6.11° C | 62% | 1013.1 hPa | 0 mm | - | 140 W/m² | - |
| 1777756796 | 6.11° C | 61% | 1012.9 hPa | 0 mm | - | 287 W/m² | - |
| 1777756492 | 6.67° C | 60% | 1013.1 hPa | 0 mm | - | 196 W/m² | - |
| 1777756190 | 6.11° C | 61% | 1013 hPa | 0 mm | - | 195 W/m² | - |
| 1777755886 | 6.11° C | 60% | 1013 hPa | 0 mm | - | 202 W/m² | - |
| 1777755583 | 6.11° C | 60% | 1012.8 hPa | 0 mm | - | 191 W/m² | - |
| 1777755279 | 6.11° C | 62% | 1012.9 hPa | 0 mm | - | 153 W/m² | - |
| 1777754977 | 6.11° C | 62% | 1013.2 hPa | 0 mm | - | 198 W/m² | - |
| 1777754674 | 6.11° C | 62% | 1013.1 hPa | 0 mm | - | 169 W/m² | - |
| 1777754372 | 6.11° C | 63% | 1013 hPa | 0 mm | - | 121 W/m² | - |
| 1777754069 | 6.11° C | 60% | 1012.8 hPa | 0 mm | - | 142 W/m² | - |
| 1777753765 | 6.67° C | 61% | 1013 hPa | 0 mm | - | 211 W/m² | - |
| 1777753462 | 6.67° C | 62% | 1013.1 hPa | 0 mm | - | 241 W/m² | - |
| 1777753160 | 6.11° C | 63% | 1012.9 hPa | 0 mm | - | 211 W/m² | - |
| 1777752856 | 6.11° C | 62% | 1013 hPa | 0 mm | - | 198 W/m² | - |
| 1777752553 | 6.67° C | 61% | 1012.9 hPa | 0 mm | - | 188 W/m² | - |
| 1777752248 | 6.67° C | 61% | 1013 hPa | 0 mm | - | 404 W/m² | - |
| 1777751946 | 6.67° C | 61% | 1013 hPa | 0 mm | - | 187 W/m² | - |
| 1777751643 | 6.67° C | 61% | 1013 hPa | 0 mm | - | 287 W/m² | - |
| 1777751339 | 6.11° C | 62% | 1013.2 hPa | 0 mm | - | 403 W/m² | - |
| 1777751036 | 6.67° C | 62% | 1013.1 hPa | 0 mm | - | 160 W/m² | - |
* Rain latest hour (hover to see other rain measurements)
** Current wind speed in m/s (hover to see current wind gust speed)